Year,Month,Day,Hour,Minute,Value (Times are PST for windgust in km/hr)
2015,03,14,00,00,6.40
2015,03,14,00,01,1.60
2015,03,14,00,02,1.60
2015,03,14,00,05,1.60
2015,03,14,00,06,1.60
2015,03,14,00,08,8.10
2015,03,14,00,09,9.60
2015,03,14,00,10,8.10
2015,03,14,00,11,6.40
2015,03,14,00,12,1.60
2015,03,14,00,13,1.60
2015,03,14,00,14,1.60
2015,03,14,00,15,4.80
2015,03,14,00,16,3.20
2015,03,14,00,17,3.20
2015,03,14,00,18,1.60
2015,03,14,00,21,3.20
2015,03,14,00,22,3.20
2015,03,14,00,23,1.60
2015,03,14,00,29,1.60
2015,03,14,00,34,1.60
2015,03,14,00,46,1.60
2015,03,14,00,49,1.60
2015,03,14,00,56,1.60
2015,03,14,00,57,1.60
2015,03,14,01,10,1.60
2015,03,14,01,26,1.60
2015,03,14,03,14,3.20
2015,03,14,03,15,1.60
2015,03,14,03,17,1.60
2015,03,14,03,20,1.60
2015,03,14,03,22,1.60
2015,03,14,05,47,1.60
2015,03,14,06,18,3.20
2015,03,14,06,19,1.60
2015,03,14,06,20,1.60
2015,03,14,06,21,1.60
2015,03,14,06,27,1.60
2015,03,14,07,06,1.60
2015,03,14,07,32,1.60
2015,03,14,07,57,1.60
2015,03,14,07,58,3.20
2015,03,14,07,59,3.20
2015,03,14,08,00,3.20
2015,03,14,08,02,3.20
2015,03,14,08,03,1.60
2015,03,14,08,06,1.60
2015,03,14,08,07,1.60
2015,03,14,08,17,1.60
2015,03,14,08,35,1.60
2015,03,14,08,36,1.60
2015,03,14,08,37,1.60
2015,03,14,08,41,1.60
2015,03,14,08,42,3.20
2015,03,14,08,44,1.60
2015,03,14,08,45,1.60
2015,03,14,08,54,1.60
2015,03,14,08,55,3.20
2015,03,14,08,56,3.20
2015,03,14,08,57,1.60
2015,03,14,09,02,3.20
2015,03,14,09,03,4.80
2015,03,14,09,04,3.20
2015,03,14,09,05,1.60
2015,03,14,09,06,1.60
2015,03,14,09,09,4.80
2015,03,14,09,10,3.20
2015,03,14,09,11,6.40
2015,03,14,09,12,3.20
2015,03,14,09,14,4.80
2015,03,14,09,15,3.20
2015,03,14,09,16,9.60
2015,03,14,09,17,3.20
2015,03,14,09,18,4.80
2015,03,14,09,19,4.80
2015,03,14,09,20,6.40
2015,03,14,09,21,8.10
2015,03,14,09,22,6.40
2015,03,14,09,23,8.10
2015,03,14,09,24,3.20
2015,03,14,09,25,6.40
2015,03,14,09,26,4.80
2015,03,14,09,27,4.80
2015,03,14,09,28,6.40
2015,03,14,09,29,3.20
2015,03,14,09,30,4.80
2015,03,14,09,31,8.10
2015,03,14,09,32,4.80
2015,03,14,09,33,8.10
2015,03,14,09,34,6.40
2015,03,14,09,35,8.10
2015,03,14,09,36,6.40
2015,03,14,09,37,17.70
2015,03,14,09,38,9.60
2015,03,14,09,39,16.10
2015,03,14,09,40,17.70
2015,03,14,09,41,11.30
2015,03,14,09,42,8.10
2015,03,14,09,43,11.30
2015,03,14,09,44,9.60
2015,03,14,09,45,8.10
2015,03,14,09,46,11.30
2015,03,14,09,47,12.90
2015,03,14,09,48,16.10
2015,03,14,09,49,9.60
2015,03,14,09,50,11.30
2015,03,14,09,51,22.50
2015,03,14,09,52,16.10
2015,03,14,09,53,17.70
2015,03,14,09,54,20.90
2015,03,14,09,55,16.10
2015,03,14,09,56,14.50
2015,03,14,09,57,24.20
2015,03,14,09,58,20.90
2015,03,14,09,59,11.30
2015,03,14,10,00,19.30
2015,03,14,10,01,20.90
2015,03,14,10,02,14.50
2015,03,14,10,03,14.50
2015,03,14,10,04,24.20
2015,03,14,10,05,27.40
2015,03,14,10,06,30.60
2015,03,14,10,07,14.50
2015,03,14,10,08,16.10
2015,03,14,10,09,16.10
2015,03,14,10,10,22.50
2015,03,14,10,11,22.50
2015,03,14,10,12,24.20
2015,03,14,10,13,27.40
2015,03,14,10,14,33.80
2015,03,14,10,15,32.20
2015,03,14,10,16,29.00
2015,03,14,10,17,33.80
2015,03,14,10,18,30.60
2015,03,14,10,19,29.00
2015,03,14,10,20,35.40
2015,03,14,10,21,38.60
2015,03,14,10,22,29.00
2015,03,14,10,23,27.40
2015,03,14,10,24,30.60
2015,03,14,10,25,30.60
2015,03,14,10,26,20.90
2015,03,14,10,27,38.60
2015,03,14,10,28,22.50
2015,03,14,10,29,20.90
2015,03,14,10,30,19.30
2015,03,14,10,31,17.70
2015,03,14,10,32,38.60
2015,03,14,10,33,38.60
2015,03,14,10,34,38.60
2015,03,14,10,35,30.60
2015,03,14,10,36,40.20
2015,03,14,10,37,41.80
2015,03,14,10,38,40.20
2015,03,14,10,39,24.20
2015,03,14,10,40,38.60
2015,03,14,10,41,33.80
2015,03,14,10,42,45.10
2015,03,14,10,43,40.20
2015,03,14,10,44,40.20
2015,03,14,10,45,37.00
2015,03,14,10,46,46.70
2015,03,14,10,47,48.30
2015,03,14,10,48,38.60
2015,03,14,10,49,29.00
2015,03,14,10,50,37.00
2015,03,14,10,51,43.50
2015,03,14,10,52,35.40
2015,03,14,10,53,53.10
2015,03,14,10,54,38.60
2015,03,14,10,55,43.50
2015,03,14,10,56,43.50
2015,03,14,10,57,57.90
2015,03,14,10,58,51.50
2015,03,14,10,59,35.40
2015,03,14,11,00,51.50
2015,03,14,11,01,40.20
2015,03,14,11,02,45.10
2015,03,14,11,03,46.70
2015,03,14,11,04,43.50
2015,03,14,11,05,41.80
2015,03,14,11,06,45.10
2015,03,14,11,07,41.80
2015,03,14,11,08,30.60
2015,03,14,11,09,38.60
2015,03,14,11,10,61.20
2015,03,14,11,11,62.70
2015,03,14,11,12,54.70
2015,03,14,11,13,45.10
2015,03,14,11,14,49.90
2015,03,14,11,15,46.70
2015,03,14,11,16,66.00
2015,03,14,11,17,45.10
2015,03,14,11,18,43.50
2015,03,14,11,19,25.70
2015,03,14,11,20,33.80
2015,03,14,11,21,48.30
2015,03,14,11,22,41.80
2015,03,14,11,23,35.40
2015,03,14,11,24,43.50
2015,03,14,11,25,43.50
2015,03,14,11,26,41.80
2015,03,14,11,27,33.80
2015,03,14,11,28,49.90
2015,03,14,11,29,32.20
2015,03,14,11,30,43.50
2015,03,14,11,31,27.40
2015,03,14,11,32,53.10
2015,03,14,11,33,46.70
2015,03,14,11,34,25.70
2015,03,14,11,35,40.20
2015,03,14,11,36,41.80
2015,03,14,11,37,74.00
2015,03,14,11,38,53.10
2015,03,14,11,39,57.90
2015,03,14,11,40,54.70
2015,03,14,11,41,43.50
2015,03,14,11,42,32.20
2015,03,14,11,43,37.00
2015,03,14,11,44,43.50
2015,03,14,11,45,43.50
2015,03,14,11,46,30.60
2015,03,14,11,47,37.00
2015,03,14,11,48,33.80
2015,03,14,11,49,35.40
2015,03,14,11,50,35.40
2015,03,14,11,51,53.10
2015,03,14,11,52,41.80
2015,03,14,11,53,41.80
2015,03,14,11,54,37.00
2015,03,14,11,55,32.20
2015,03,14,11,56,41.80
2015,03,14,11,57,35.40
2015,03,14,11,58,25.70
2015,03,14,11,59,51.50
2015,03,14,12,00,37.00
2015,03,14,12,01,53.10
2015,03,14,12,02,37.00
2015,03,14,12,03,40.20
2015,03,14,12,04,29.00
2015,03,14,12,05,40.20
2015,03,14,12,06,67.60
2015,03,14,12,07,37.00
2015,03,14,12,08,61.20
2015,03,14,12,09,41.80
2015,03,14,12,10,51.50
2015,03,14,12,11,35.40
2015,03,14,12,12,38.60
2015,03,14,12,13,40.20
2015,03,14,12,14,32.20
2015,03,14,12,15,32.20
2015,03,14,12,16,33.80
2015,03,14,12,17,40.20
2015,03,14,12,18,40.20
2015,03,14,12,19,40.20
2015,03,14,12,20,38.60
2015,03,14,12,21,24.20
2015,03,14,12,22,46.70
2015,03,14,12,23,24.20
2015,03,14,12,24,24.20
2015,03,14,12,25,51.50
2015,03,14,12,26,41.80
2015,03,14,12,27,33.80
2015,03,14,12,28,27.40
2015,03,14,12,29,25.70
2015,03,14,12,30,40.20
2015,03,14,12,31,38.60
2015,03,14,12,32,40.20
2015,03,14,12,33,41.80
2015,03,14,12,34,40.20
2015,03,14,12,35,40.20
2015,03,14,12,36,48.30
2015,03,14,12,37,40.20
2015,03,14,12,38,38.60
2015,03,14,12,39,38.60
2015,03,14,12,40,40.20
2015,03,14,12,41,35.40
2015,03,14,12,42,33.80
2015,03,14,12,43,22.50
2015,03,14,12,44,32.20
2015,03,14,12,45,41.80
2015,03,14,12,46,35.40
2015,03,14,12,47,37.00
2015,03,14,12,48,37.00
2015,03,14,12,49,27.40
2015,03,14,12,50,32.20
2015,03,14,12,51,37.00
2015,03,14,12,52,30.60
2015,03,14,12,53,49.90
2015,03,14,12,54,29.00
2015,03,14,12,55,48.30
2015,03,14,12,56,46.70
2015,03,14,12,57,45.10
2015,03,14,12,58,40.20
2015,03,14,12,59,41.80
2015,03,14,13,00,45.10
2015,03,14,13,01,30.60
2015,03,14,13,02,46.70
2015,03,14,13,03,46.70
2015,03,14,13,04,29.00
2015,03,14,13,05,16.10
2015,03,14,13,06,25.70
2015,03,14,13,07,45.10
2015,03,14,13,08,38.60
2015,03,14,13,09,27.40
2015,03,14,13,10,40.20
2015,03,14,13,11,27.40
2015,03,14,13,12,27.40
2015,03,14,13,13,27.40
2015,03,14,13,14,27.40
2015,03,14,13,15,27.40
2015,03,14,13,16,33.80
2015,03,14,13,17,29.00
2015,03,14,13,18,35.40
2015,03,14,13,19,49.90
2015,03,14,13,20,32.20
2015,03,14,13,21,48.30
2015,03,14,13,22,46.70
2015,03,14,13,23,51.50
2015,03,14,13,24,49.90
2015,03,14,13,25,38.60
2015,03,14,13,26,37.00
2015,03,14,13,27,54.70
2015,03,14,13,28,37.00
2015,03,14,13,29,38.60
2015,03,14,13,30,49.90
2015,03,14,13,31,46.70
2015,03,14,13,32,41.80
2015,03,14,13,33,45.10
2015,03,14,13,34,40.20
2015,03,14,13,35,24.20
2015,03,14,13,36,27.40
2015,03,14,13,37,54.70
2015,03,14,13,38,30.60
2015,03,14,13,39,17.70
2015,03,14,13,40,32.20
2015,03,14,13,41,32.20
2015,03,14,13,42,30.60
2015,03,14,13,43,51.50
2015,03,14,13,44,54.70
2015,03,14,13,45,33.80
2015,03,14,13,46,38.60
2015,03,14,13,47,41.80
2015,03,14,13,48,48.30
2015,03,14,13,49,51.50
2015,03,14,13,50,49.90
2015,03,14,13,51,27.40
2015,03,14,13,52,25.70
2015,03,14,13,53,29.00
2015,03,14,13,54,35.40
2015,03,14,13,55,38.60
2015,03,14,13,56,40.20
2015,03,14,13,57,38.60
2015,03,14,13,58,40.20
2015,03,14,13,59,29.00
2015,03,14,14,00,41.80
2015,03,14,14,01,48.30
2015,03,14,14,02,29.00
2015,03,14,14,03,38.60
2015,03,14,14,04,43.50
2015,03,14,14,05,43.50
2015,03,14,14,06,41.80
2015,03,14,14,07,40.20
2015,03,14,14,08,51.50
2015,03,14,14,09,38.60
2015,03,14,14,10,29.00
2015,03,14,14,11,51.50
2015,03,14,14,12,43.50
2015,03,14,14,13,41.80
2015,03,14,14,14,25.70
2015,03,14,14,15,17.70
2015,03,14,14,16,29.00
2015,03,14,14,17,27.40
2015,03,14,14,18,35.40
2015,03,14,14,19,43.50
2015,03,14,14,20,48.30
2015,03,14,14,21,48.30
2015,03,14,14,22,25.70
2015,03,14,14,23,53.10
2015,03,14,14,24,33.80
2015,03,14,14,25,37.00
2015,03,14,14,26,45.10
2015,03,14,14,27,30.60
2015,03,14,14,28,35.40
2015,03,14,14,29,32.20
2015,03,14,14,30,41.80
2015,03,14,14,31,32.20
2015,03,14,14,32,40.20
2015,03,14,14,33,27.40
2015,03,14,14,34,25.70
2015,03,14,14,35,25.70
2015,03,14,14,36,43.50
2015,03,14,14,37,41.80
2015,03,14,14,38,45.10
2015,03,14,14,39,43.50
2015,03,14,14,40,24.20
2015,03,14,14,41,22.50
2015,03,14,14,42,27.40
2015,03,14,14,43,20.90
2015,03,14,14,44,33.80
2015,03,14,14,45,24.20
2015,03,14,14,46,16.10
2015,03,14,14,47,25.70
2015,03,14,14,48,32.20
2015,03,14,14,49,25.70
2015,03,14,14,50,35.40
2015,03,14,14,51,24.20
2015,03,14,14,52,29.00
2015,03,14,14,53,40.20
2015,03,14,14,54,45.10
2015,03,14,14,55,35.40
2015,03,14,14,56,27.40
2015,03,14,14,57,24.20
2015,03,14,14,58,27.40
2015,03,14,14,59,14.50
2015,03,14,15,00,12.90
2015,03,14,15,01,27.40
2015,03,14,15,02,24.20
2015,03,14,15,03,25.70
2015,03,14,15,04,16.10
2015,03,14,15,05,24.20
2015,03,14,15,06,20.90
2015,03,14,15,07,24.20
2015,03,14,15,08,29.00
2015,03,14,15,09,25.70
2015,03,14,15,10,20.90
2015,03,14,15,11,22.50
2015,03,14,15,12,19.30
2015,03,14,15,13,9.60
2015,03,14,15,14,24.20
2015,03,14,15,15,14.50
2015,03,14,15,16,9.60
2015,03,14,15,17,19.30
2015,03,14,15,18,17.70
2015,03,14,15,19,19.30
2015,03,14,15,20,16.10
2015,03,14,15,21,20.90
2015,03,14,15,22,25.70
2015,03,14,15,23,14.50
2015,03,14,15,24,16.10
2015,03,14,15,25,20.90
2015,03,14,15,26,9.60
2015,03,14,15,27,19.30
2015,03,14,15,28,12.90
2015,03,14,15,29,19.30
2015,03,14,15,30,14.50
2015,03,14,15,31,20.90
2015,03,14,15,32,30.60
2015,03,14,15,33,19.30
2015,03,14,15,34,19.30
2015,03,14,15,35,16.10
2015,03,14,15,36,17.70
2015,03,14,15,37,11.30
2015,03,14,15,38,11.30
2015,03,14,15,39,11.30
2015,03,14,15,40,24.20
2015,03,14,15,41,9.60
2015,03,14,15,42,8.10
2015,03,14,15,43,17.70
2015,03,14,15,44,16.10
2015,03,14,15,45,12.90
2015,03,14,15,46,14.50
2015,03,14,15,47,22.50
2015,03,14,15,48,25.70
2015,03,14,15,49,19.30
2015,03,14,15,50,20.90
2015,03,14,15,51,19.30
2015,03,14,15,52,17.70
2015,03,14,15,53,17.70
2015,03,14,15,54,17.70
2015,03,14,15,55,19.30
2015,03,14,15,56,8.10
2015,03,14,15,57,16.10
2015,03,14,15,58,11.30
2015,03,14,15,59,16.10
2015,03,14,16,00,20.90
2015,03,14,16,01,20.90
2015,03,14,16,02,17.70
2015,03,14,16,03,16.10
2015,03,14,16,04,19.30
2015,03,14,16,05,11.30
2015,03,14,16,06,17.70
2015,03,14,16,07,11.30
2015,03,14,16,08,16.10
2015,03,14,16,09,11.30
2015,03,14,16,10,8.10
2015,03,14,16,11,22.50
2015,03,14,16,12,11.30
2015,03,14,16,13,16.10
2015,03,14,16,14,16.10
2015,03,14,16,15,19.30
2015,03,14,16,16,11.30
2015,03,14,16,17,12.90
2015,03,14,16,18,14.50
2015,03,14,16,19,11.30
2015,03,14,16,20,16.10
2015,03,14,16,21,17.70
2015,03,14,16,22,8.10
2015,03,14,16,23,11.30
2015,03,14,16,24,14.50
2015,03,14,16,25,27.40
2015,03,14,16,26,24.20
2015,03,14,16,27,19.30
2015,03,14,16,28,24.20
2015,03,14,16,29,17.70
2015,03,14,16,30,24.20
2015,03,14,16,31,19.30
2015,03,14,16,32,20.90
2015,03,14,16,33,19.30
2015,03,14,16,34,20.90
2015,03,14,16,35,14.50
2015,03,14,16,36,16.10
2015,03,14,16,37,16.10
2015,03,14,16,38,14.50
2015,03,14,16,39,14.50
2015,03,14,16,40,19.30
2015,03,14,16,41,17.70
2015,03,14,16,42,19.30
2015,03,14,16,43,25.70
2015,03,14,16,44,19.30
2015,03,14,16,45,17.70
2015,03,14,16,46,20.90
2015,03,14,16,47,8.10
2015,03,14,16,48,14.50
2015,03,14,16,49,11.30
2015,03,14,16,50,16.10
2015,03,14,16,51,11.30
2015,03,14,16,52,14.50
2015,03,14,16,53,20.90
2015,03,14,16,54,17.70
2015,03,14,16,55,8.10
2015,03,14,16,56,6.40
2015,03,14,16,57,14.50
2015,03,14,16,58,9.60
2015,03,14,16,59,17.70
2015,03,14,17,00,17.70
2015,03,14,17,01,16.10
2015,03,14,17,02,12.90
2015,03,14,17,03,4.80
2015,03,14,17,04,9.60
2015,03,14,17,05,6.40
2015,03,14,17,06,16.10
2015,03,14,17,07,24.20
2015,03,14,17,08,22.50
2015,03,14,17,09,8.10
2015,03,14,17,10,8.10
2015,03,14,17,11,4.80
2015,03,14,17,12,6.40
2015,03,14,17,13,19.30
2015,03,14,17,14,14.50
2015,03,14,17,15,17.70
2015,03,14,17,16,16.10
2015,03,14,17,17,16.10
2015,03,14,17,18,8.10
2015,03,14,17,19,16.10
2015,03,14,17,20,12.90
2015,03,14,17,21,16.10
2015,03,14,17,22,8.10
2015,03,14,17,23,8.10
2015,03,14,17,24,9.60
2015,03,14,17,25,11.30
2015,03,14,17,26,20.90
2015,03,14,17,27,11.30
2015,03,14,17,28,14.50
2015,03,14,17,29,9.60
2015,03,14,17,30,14.50
2015,03,14,17,31,11.30
2015,03,14,17,32,11.30
2015,03,14,17,33,19.30
2015,03,14,17,34,20.90
2015,03,14,17,35,25.70
2015,03,14,17,36,20.90
2015,03,14,17,37,19.30
2015,03,14,17,38,20.90
2015,03,14,17,39,11.30
2015,03,14,17,40,22.50
2015,03,14,17,41,20.90
2015,03,14,17,42,17.70
2015,03,14,17,43,25.70
2015,03,14,17,44,22.50
2015,03,14,17,45,24.20
2015,03,14,17,46,19.30
2015,03,14,17,47,14.50
2015,03,14,17,48,17.70
2015,03,14,17,49,25.70
2015,03,14,17,50,29.00
2015,03,14,17,51,25.70
2015,03,14,17,52,24.20
2015,03,14,17,53,16.10
2015,03,14,17,54,27.40
2015,03,14,17,55,22.50
2015,03,14,17,56,11.30
2015,03,14,17,57,11.30
2015,03,14,17,58,14.50
2015,03,14,17,59,22.50
2015,03,14,18,00,27.40
2015,03,14,18,01,27.40
2015,03,14,18,02,24.20
2015,03,14,18,03,22.50
2015,03,14,18,04,24.20
2015,03,14,18,05,22.50
2015,03,14,18,06,20.90
2015,03,14,18,07,14.50
2015,03,14,18,08,22.50
2015,03,14,18,09,22.50
2015,03,14,18,10,19.30
2015,03,14,18,11,20.90
2015,03,14,18,12,16.10
2015,03,14,18,13,11.30
2015,03,14,18,14,11.30
2015,03,14,18,15,8.10
2015,03,14,18,16,11.30
2015,03,14,18,17,11.30
2015,03,14,18,18,6.40
2015,03,14,18,19,1.60
2015,03,14,18,20,16.10
2015,03,14,18,21,16.10
2015,03,14,18,22,25.70
2015,03,14,18,23,11.30
2015,03,14,18,24,9.60
2015,03,14,18,25,8.10
2015,03,14,18,26,9.60
2015,03,14,18,27,9.60
2015,03,14,18,28,6.40
2015,03,14,18,29,6.40
2015,03,14,18,30,11.30
2015,03,14,18,31,16.10
2015,03,14,18,32,8.10
2015,03,14,18,33,3.20
2015,03,14,18,34,1.60
2015,03,14,18,35,3.20
2015,03,14,18,36,3.20
2015,03,14,18,37,8.10
2015,03,14,18,38,8.10
2015,03,14,18,39,19.30
2015,03,14,18,40,11.30
2015,03,14,18,41,4.80
2015,03,14,18,42,6.40
2015,03,14,18,43,19.30
2015,03,14,18,44,17.70
2015,03,14,18,45,8.10
2015,03,14,18,46,1.60
2015,03,14,18,47,11.30
2015,03,14,18,48,3.20
2015,03,14,18,49,9.60
2015,03,14,18,50,6.40
2015,03,14,18,51,6.40
2015,03,14,18,52,4.80
2015,03,14,18,53,6.40
2015,03,14,18,54,6.40
2015,03,14,18,55,9.60
2015,03,14,18,56,14.50
2015,03,14,18,57,4.80
2015,03,14,18,58,14.50
2015,03,14,18,59,14.50
2015,03,14,19,00,6.40
2015,03,14,19,01,16.10
2015,03,14,19,02,6.40
2015,03,14,19,03,8.10
2015,03,14,19,04,9.60
2015,03,14,19,05,4.80
2015,03,14,19,06,3.20
2015,03,14,19,07,9.60
2015,03,14,19,08,11.30
2015,03,14,19,09,4.80
2015,03,14,19,10,4.80
2015,03,14,19,11,8.10
2015,03,14,19,12,8.10
2015,03,14,19,13,14.50
2015,03,14,19,14,6.40
2015,03,14,19,15,4.80
2015,03,14,19,16,17.70
2015,03,14,19,17,8.10
2015,03,14,19,18,6.40
2015,03,14,19,19,6.40
2015,03,14,19,20,3.20
2015,03,14,19,21,1.60
2015,03,14,19,23,3.20
2015,03,14,19,24,8.10
2015,03,14,19,25,8.10
2015,03,14,19,26,8.10
2015,03,14,19,27,8.10
2015,03,14,19,28,8.10
2015,03,14,19,29,6.40
2015,03,14,19,30,6.40
2015,03,14,19,31,8.10
2015,03,14,19,32,8.10
2015,03,14,19,33,8.10
2015,03,14,19,34,4.80
2015,03,14,19,35,3.20
2015,03,14,19,36,11.30
2015,03,14,19,37,4.80
2015,03,14,19,38,9.60
2015,03,14,19,39,12.90
2015,03,14,19,40,9.60
2015,03,14,19,41,3.20
2015,03,14,19,42,4.80
2015,03,14,19,43,8.10
2015,03,14,19,44,4.80
2015,03,14,19,45,4.80
2015,03,14,19,46,1.60
2015,03,14,19,47,4.80
2015,03,14,19,48,3.20
2015,03,14,19,49,4.80
2015,03,14,19,50,11.30
2015,03,14,19,51,16.10
2015,03,14,19,52,8.10
2015,03,14,19,54,4.80
2015,03,14,19,55,4.80
2015,03,14,19,56,4.80
2015,03,14,19,57,3.20
2015,03,14,19,58,4.80
2015,03,14,19,59,1.60
2015,03,14,20,00,1.60
2015,03,14,20,01,1.60
2015,03,14,20,04,3.20
2015,03,14,20,05,1.60
2015,03,14,20,06,4.80
2015,03,14,20,07,6.40
2015,03,14,20,08,3.20
2015,03,14,20,09,3.20
2015,03,14,20,10,3.20
2015,03,14,20,11,8.10
2015,03,14,20,12,3.20
2015,03,14,20,13,6.40
2015,03,14,20,14,4.80
2015,03,14,20,15,3.20
2015,03,14,20,16,6.40
2015,03,14,20,17,8.10
2015,03,14,20,18,1.60
2015,03,14,20,19,1.60
2015,03,14,20,21,3.20
2015,03,14,20,22,3.20
2015,03,14,20,23,3.20
2015,03,14,20,24,3.20
2015,03,14,20,25,1.60
2015,03,14,20,27,1.60
2015,03,14,20,28,1.60
2015,03,14,20,29,3.20
2015,03,14,20,30,1.60
2015,03,14,20,31,4.80
2015,03,14,20,36,1.60
2015,03,14,20,37,4.80
2015,03,14,20,38,8.10
2015,03,14,20,39,3.20
2015,03,14,20,40,1.60
2015,03,14,20,41,6.40
2015,03,14,20,42,3.20
2015,03,14,20,43,4.80
2015,03,14,20,44,4.80
2015,03,14,20,45,4.80
2015,03,14,20,46,3.20
2015,03,14,20,47,1.60
2015,03,14,20,48,8.10
2015,03,14,20,49,4.80
2015,03,14,20,50,1.60
2015,03,14,20,51,1.60
2015,03,14,20,55,1.60
2015,03,14,20,56,1.60
2015,03,14,20,57,1.60
2015,03,14,20,58,3.20
2015,03,14,20,59,3.20
2015,03,14,21,00,3.20
2015,03,14,21,01,3.20
2015,03,14,21,02,3.20
2015,03,14,21,03,4.80
2015,03,14,21,04,3.20
2015,03,14,21,05,3.20
2015,03,14,21,06,4.80
2015,03,14,21,07,1.60
2015,03,14,21,08,1.60
2015,03,14,21,09,1.60
2015,03,14,21,11,1.60
2015,03,14,21,19,3.20
2015,03,14,21,20,3.20
2015,03,14,21,21,1.60
2015,03,14,21,22,1.60
2015,03,14,21,23,6.40
2015,03,14,21,24,3.20
2015,03,14,21,34,1.60
2015,03,14,21,35,1.60
2015,03,14,21,36,1.60
2015,03,14,21,37,1.60
2015,03,14,21,54,1.60
2015,03,14,21,55,3.20
2015,03,14,22,07,1.60
2015,03,14,22,08,1.60
2015,03,14,22,19,1.60
2015,03,14,22,27,3.20
2015,03,14,22,28,3.20
2015,03,14,22,33,3.20
2015,03,14,22,34,6.40
2015,03,14,22,35,1.60
2015,03,14,22,36,3.20
2015,03,14,22,37,3.20
2015,03,14,22,42,4.80
2015,03,14,22,43,1.60
